Regional Weather Roundup
Issued by NWS Upton, NY

Current Version | Previous Version | Graphics & Text | Print | Product List | Glossary Off
Versions: 1 2 3 4 5 6 7 8 9 10 11 12 13 14 15 16 17 18 19 20 21 22 23 24 25 26 27 28 29 30 31 32 33 34 35 36 37 38 39 40 41 42 43 44 45 46 47 48 49 50

985
ASUS41 KOKX 202208
RWROKX

REGIONAL WEATHER ROUNDUP
NATIONAL WEATHER SERVICE NEW YORK NY
500 PM EST FRI JAN 20 2017

NOTE: "FAIR" INDICATES FEW OR NO CLOUDS BELOW 12,000 FEET WITH NO
SIGNIFICANT WEATHER AND/OR OBSTRUCTIONS TO VISIBILITY.

NYZ071-072-176-178-NJZ106-104-202300-
NEW YORK CITY METRO AREA

CITY           SKY/WX    TMP DP  RH WIND       PRES   REMARKS
Central Park   LGT RAIN  41  38  89 S3        29.95S FOG
Wall St Helipt CLOUDY    41  38  89 SE7       29.95S
LaGuardia APRT LGT RAIN  45  37  73 VRB3      29.93F
Kennedy INTL   LGT RAIN  42  40  92 SE7       29.95S
Breezy Point     N/A     39 N/A N/A SE6         N/A  WCI  35
Newark/Liberty LGT RAIN  42  39  89 SE5       29.93F FOG
Teterboro      LGT RAIN  42  39  89 SW6       29.92S FOG
$$

NYZ177-179-078>081-202300-
LONG ISLAND NEW YORK

CITY           SKY/WX    TMP DP  RH WIND       PRES   REMARKS
Jones Beach      N/A     39 N/A N/A SE5         N/A
Matinecock PT  NOT AVBL
Farmingdale    CLOUDY    42  33  70 SE7       29.94S
MacArthur/ISP  CLOUDY    42  34  73 SE7       29.94F
Shirley        CLOUDY    41  36  82 VRB5      29.95F
Westhampton    CLOUDY    41  34  76 E3        29.96S
Southampton    NOT AVBL
Bridgehampton  NOT AVBL
East Hampton   CLOUDY    40  33  76 CALM      29.96S
Montauk          N/A     41  32  70 CALM      29.97R
$$

NYZ052-065-067-202300-
HUDSON VALLEY

CITY           SKY/WX    TMP DP  RH WIND       PRES   REMARKS
White Plains   CLOUDY    40  32  73 SE7       29.91F
Newburgh       CLOUDY    39  37  93 SE6       29.92S WCI  35
Montgomery     CLOUDY    41  34  76 CALM      29.89S
Poughkeepsie   CLOUDY    41  32  70 CALM      29.91S
Albany         CLOUDY    40  31  70 S7        29.90F
$$

NJZ001-105-106-008-010-013-015-019>022-104-202300-
NEW JERSEY

CITY           SKY/WX    TMP DP  RH WIND       PRES   REMARKS
Newark/Liberty LGT RAIN  42  39  89 SE5       29.93F FOG
Teterboro      LGT RAIN  42  39  89 SW6       29.92S FOG
Caldwell       LGT RAIN  41  39  93 CALM      29.93S FOG
Somerville     LGT RAIN  41  38  89 CALM      29.91S FOG
Linden         LGT RAIN  41  38  90 CALM      29.93S
Sussex         LGT RAIN  40  38  93 CALM      29.90S FOG
Andover          N/A     39  37  92 CALM      29.89F
Trenton        CLOUDY    41  40  96 SE3       29.91F FOG
Millville      LGT RAIN  42  42 100 E6        29.91F FOG
Atlantic City  CLOUDY    42  40  92 CALM      29.93S
Wrightstown    CLOUDY    41  40  95 E3        29.89F
Toms River     LGT RAIN  42  41  96 CALM      29.93F FOG
Belmar         LGT RAIN  41  40  96 E3        29.94F
$$

PAZ047>061-062-071-202300-
EASTERN PENNSYLVANIA

CITY           SKY/WX    TMP DP  RH WIND       PRES   REMARKS
Philadelphia   CLOUDY    41  39  93 E3        29.92F FOG
Allentown      CLOUDY    40  36  86 CALM      29.90S
Scranton       LGT RAIN  38  38 100 CALM      29.83S FOG
$$

CTZ002-004>006-009-010-012-RIZ004-006-007-MAZ004-011-015-202300-
SOUTHERN NEW ENGLAND
 IN CT

CITY           SKY/WX    TMP DP  RH WIND       PRES   REMARKS
Bradley INTL   CLOUDY    40  30  67 S5        29.94S
Hartford       CLOUDY    41  31  67 SW5       29.95R
Danbury        CLOUDY    40  32  73 S3        29.93S
Wtrbury/Oxford CLOUDY    39  28  65 S3        29.93S
Bridgeport     CLOUDY    41  36  82 E6        29.95S
Meriden        CLOUDY    42  31  64 CALM      29.94S
New Haven      CLOUDY    40  34  79 SE5       29.95S
Chester        CLOUDY    39  32  75 SE5       29.94S
Groton         CLOUDY    41  32  70 S6        29.96R
Wilimantic     CLOUDY    42  31  64 SW3       29.95R

 IN RI

CITY           SKY/WX    TMP DP  RH WIND       PRES   REMARKS
Providence     CLOUDY    39  30  70 SE3       29.95S
Block Island   NOT AVBL
Westerly       CLOUDY    41  30  65 S5        29.96R
 IN MA

CITY           SKY/WX    TMP DP  RH WIND       PRES   REMARKS
Boston         CLOUDY    39  34  82 E8        29.95F WCI  33
Worcester      CLOUDY    35  27  72 CALM      29.91S
Westfield      CLOUDY    39  30  70 S3        29.93S
Provincetown   CLOUDY    40  31  70 E5        29.97F
Nantucket      CLOUDY    40  31  70 NE5       29.96F
$$

ANZ330-335-338-340-345-350-353-355-202300-
COASTAL MARINE OBSERVATIONS


STATION/POSITION TIME  SKY/WX   TEMP    WIND        PRES    VSBY  WAVE
                                AIR SEA DIR/SP/G                  HT/PER
                 (UTC)          (F)     (DEG/KT/KT) (MB)    (MI)  (FT/S)
NY HARB ENTRANCE 2150            42 44   90/  8/ 10 1013.6          4/13
20 S FIRE ISLAND 2150            43 46   60/  8/ 10 1013.6          4/13
GREAT SOUTH BAY  NOT AVBL
23 SSW MONTAUK P 2150            44 48  120/  6/  8 1014.7          4/ 8
15 E BARNEGAT LI 2130               47                N/A           4/12
HUDSON CANYON    2050            48 51              1013.7          5/12
KINGS POINT      2124            41 39              1013.6
EXECUTION ROCKS  2145            40      60/  6/  8   N/A
CENTRAL LI SOUND 2115            40     120/  6/  6   N/A           0
EASTERN LI SOUND NOT AVBL
ROBBINS REEF     2124            41     140/  8/  9 1013.7
$$


>>>>>>>>>>>>>>>>>>>>>>>>>>>> KEY <<<<<<<<<<<<<<<<<<<<<<<<<<<
>                                                          <
>     SKY/WX - Sky Condition/Present Weather               <
>     TMP    - Temperature in Fahrenheit                   <
>     DP     - Dew Point in Fahrenheit                     <
>     RH     - Relative Humidity in Percent                <
>     WIND   - Direction (from) and Speed in MPH           <
>     PRES   - Mean Sea Level Pressure (inches of Hg)      <
>     WCI    - Wind Chill Index                            <
>     VSB    - VISIBILITY IN MILES                         <
>     HX     - HEAT INDEX                                  <
>     TC     - TEMPERATURE IN CELSIUS                      <
>     VRB    - VARIABLE WIND DIRECTION                     <
>                                                          <
>>>>>>>>>>>>>>>>>>>>>>>>>>>> KEY <<<<<<<<<<<<<<<<<<<<<<<<<<<




USA.gov is the U.S. government's official web portal to all federal, state and local government web resources and services.